Flag for Iceland Weather past 2 weeks in Reykjavik, Iceland

Now
50 °F

Broken clouds.


Feels Like: 44 °F
Forecast: N/A
Wind: 18 mph from Southeast

Location: Reykjavik Airport


UV Index: N/A

Visibility: N/A


Pressure: 29.98 "Hg

Humidity: 67%

Dew point: 39 °F

Location of ReykjavikLocation

Historic Weather in Reykjavik

°F

Reykjavik temperature yesterday

Maximum temperature yesterday: 55 °F (at 6:00 PM)
Minimum temperature yesterday: 46 °F (at 9:00 AM)
Average temperature yesterday: 51 °F

Past Weeks' High & Low Weather Summary

 TemperatureHumidityPressure
High55 °F (Apr 23, 6:00 PM)100% (Apr 15, 9:00 PM)30.09 "Hg (Apr 15, 9:00 PM)
Low27 °F (Apr 17, 3:00 AM)41% (Apr 23, 12:00 PM)28.77 "Hg (Apr 11, 7:00 PM)
Average39 °F76%29.66 "Hg
* Reported Apr 9 7:00 PM — Apr 24 7:00 PM, Reykjavik, Weather by CustomWeather, © 2014

Note: Actual official high and low records may vary slightly from our data, if they occured in-between our weather recording intervals... More about our weather records

Advertising

Historic Weather Conditions — Data for Previous 24 hours

 ConditionsComfort  
Time TempWeatherWind HumidityBarometerVisibility
7:00 PM
Apr 24
50 °FBroken clouds.18 mph67%29.98 "HgN/A
6:00 PM52 °FBroken clouds.21 mph62%29.95 "HgN/A
5:00 PM52 °FBroken clouds.22 mph62%29.95 "HgN/A
4:00 PM52 °FBroken clouds.20 mph58%29.95 "HgN/A
3:00 PM52 °FBroken clouds.18 mph54%29.92 "HgN/A
2:00 PM52 °FBroken clouds.24 mph54%29.92 "HgN/A
1:00 PM50 °FBroken clouds.17 mph62%29.92 "HgN/A
12:00 PM50 °FPartly sunny.13 mph71%29.92 "HgN/A
11:00 AM48 °FScattered showers. Partly sunny.13 mph76%29.92 "HgN/A
10:00 AM48 °FScattered showers. Partly sunny.8 mph76%29.92 "HgN/A
9:00 AM50 °FSprinkles. Broken clouds.16 mph71%29.89 "HgN/A
8:00 AM50 °FBroken clouds.15 mph71%29.86 "HgN/A
7:00 AM48 °FBroken clouds.16 mph76%29.86 "HgN/A
6:00 AM48 °FBroken clouds.12 mph71%29.86 "HgN/A
5:00 AM48 °FPartly cloudy.14 mph71%29.86 "HgN/A
4:00 AM46 °FCool.12 mph71%29.86 "HgN/A
3:00 AM48 °FPartly cloudy.13 mph66%29.86 "HgN/A
2:00 AM46 °FPartly cloudy.15 mph71%29.86 "HgN/A
1:00 AM48 °FPartly cloudy.15 mph66%29.89 "HgN/A
12:00 AM46 °FPartly cloudy.14 mph71%29.89 "HgN/A
11:00 PM
Apr 23
48 °FPartly cloudy.8 mph71%29.89 "HgN/A
10:00 PM46 °FPartly cloudy.7 mph76%29.89 "HgN/A
9:00 PM48 °FLight rain. Broken clouds.13 mph71%29.89 "HgN/A
8:00 PM52 °FLight rain. Broken clouds.10 mph62%29.86 "HgN/A
7:00 PM54 °FSunny.14 mph51%29.86 "Hg10 mi
Weather by CustomWeather, © 2014

See weather overview